Location: Newark
(34.9500°N, 139.9667°E)
Time: 06:32:50
(UTC+00:00)

deb Explorer IX - Pass Details

Date: 19 December 2019
Orbit: 548 x 1101 km, 38.8° (Epoch: 20 January)

Event Time Altitude Azimuth Distance (km) Brightness Sun altitude
Rises 08:07:55 0° 288° (WNW) 3,209 ? -7.6°
Reaches altitude 10° 08:10:13 10° 287° (WNW) 2,364 ? -8.0°
Maximum altitude 08:15:51 74° 203° (SSW) 926 ? -9.1°
Drops below altitude 10° 08:22:27 10° 120° (ESE) 2,746 ? -10.4°
Sets 08:25:17 0° 118° (ESE) 3,763 ? -10.9°
